[[{"header":{"parameterUnit":"m.s-1","parameterCategory":1,"la1":30.2991,"la2":30.254,"lo1":-89.0895,"lo2":-89.0444,"dy":0.0017,"dx":0.0017,"nx":28,"ny":28,"refTime":"2025-07-18T09:00:00:Z","depth":0,"parameterNumber":2,"parameterNumberName":"U-component_of_WINDS"},"data":[0,0,0,0,0,0,0,0,0,0,0,0,0,0,0,0,0,0,0,0,0,0,0,0,0,0,0,0,0,0,0,0,0,0,0,0,0,0,0,0,0,0,0,0,0,0,0,0,0,0,0,0,0,0,0,0,0,0,2.0636,2.0636,0,2.062,2.062,2.062,2.0557,2.0555,2.0554,2.0552,2.0535,2.0536,2.0537,0,0,0,0,0,0,0,0,0,0,0,0,0,2.0607,2.0608,2.0636,2.0636,2.0636,2.062,2.062,2.062,2.0557,2.0555,2.0553,2.0552,2.0535,2.0536,2.0537,0,0,0,0,0,0,0,0,0,0,0,0,0,2.0609,2.0608,2.0636,2.0602,2.0599,2.062,2.062,2.062,2.0557,2.0555,2.0553,2.0551,2.0534,2.0536,2.0537,2.0589,0,0,2.0541,2.0542,0,0,0,0,0,0,0,0,2.0609,2.061,2.0607,2.0605,2.0601,2.0588,2.0603,2.0609,2.0558,2.0573,2.0552,2.055,2.0554,2.0554,2.0556,2.0588,2.0587,2.0541,2.0542,2.0543,2.0543,0,0,0,0,0,0,0,2.0609,2.061,2.063,2.0608,2.0604,2.0587,2.0584,2.0604,2.0576,2.0572,2.0567,2.0566,2.0552,2.0555,2.0555,2.0587,2.0541,2.0542,2.0543,2.0544,2.0656,2.0658,0,0,0,0,0,0,2.0614,2.061,2.063,2.0629,2.06,2.0589,2.0586,2.0595,2.0576,2.0571,2.0568,2.0563,2.0553,2.0553,2.0554,2.0609,2.0543,2.0544,2.0545,2.0654,2.0656,2.0659,0,0,0,0,0,0,2.0613,2.0616,2.0631,2.0618,2.0619,2.0592,2.0601,2.0595,2.0598,2.0573,2.0567,2.0576,2.0552,2.0552,2.058,2.0608,2.0544,2.0546,2.0651,2.0654,2.0657,2.0724,0,0,0,0,0,0,2.0613,2.0616,2.0637,2.0619,2.062,2.0658,2.0603,2.0597,2.06,2.0594,2.0579,2.0574,2.055,2.0578,2.0581,2.0609,2.0547,2.0648,2.0652,2.0656,2.0719,2.0729,2.0737,0,0,0,0,0,2.0612,2.0657,2.0638,2.0641,2.0645,2.066,2.066,2.0632,2.0603,2.0622,2.0606,2.0575,2.0605,2.0581,2.0584,2.0613,2.0646,2.0651,2.0656,2.0715,2.0727,2.0737,0,0,0,0,0,0,2.0679,2.0654,2.0633,2.0674,2.067,2.0649,2.0673,2.0646,2.0649,2.0643,2.0607,2.0604,2.0636,2.0628,2.0601,2.066,2.062,2.0626,2.0664,2.0675,2.0684,2.0684,2.0548,0,0,0,0,0,2.0699,2.0714,2.0691,2.0729,2.0728,2.0701,2.0706,2.0685,2.0678,2.0676,2.0661,2.0656,2.0663,2.0669,2.0675,2.0718,2.0711,2.0739,2.0748,2.0756,2.076,2.0777,2.0788,2.0675,2.0675,2.0674,0,0,2.074,2.0728,2.0739,2.0742,2.0736,2.075,2.07,2.0718,2.0727,2.0678,2.0702,2.0692,2.0682,2.0716,2.0731,2.071,2.079,2.0762,2.0769,2.0769,2.0784,2.0794,2.0804,2.0678,2.0677,2.0677,0,0,2.082,2.0814,2.0843,2.0837,2.0828,2.0809,2.0816,2.08,2.079,2.0814,2.0776,2.0786,2.0802,2.0795,2.0794,2.0868,2.0838,2.0871,2.0919,2.0936,2.0945,2.0953,2.0975,2.0984,2.0877,2.0877,2.0877,0,2.0871,2.0892,2.0861,2.0881,2.0881,2.0837,2.0864,2.086,2.0854,2.0854,2.0832,2.0847,2.0839,2.0868,2.0886,2.0888,2.0892,2.0872,2.0947,2.0954,2.0961,2.0982,2.0991,2.0881,2.088,2.088,2.0879,0,2.0953,2.0968,2.0992,2.0985,2.0989,2.1013,2.0984,2.0991,2.0968,2.0951,2.0974,2.0961,2.0962,2.0968,2.0947,2.0993,2.098,2.0953,2.0912,2.0976,2.0994,2.1003,2.0886,2.0885,2.0883,2.0883,0,0,2.1076,2.105,2.1059,2.1053,2.1039,2.1048,2.1069,2.1069,2.1074,2.1071,2.1084,2.1097,2.107,2.1068,2.1046,2.1062,2.1116,2.1031,2.103,2.1044,2.1161,2.118,2.119,2.1097,2.1098,2.11,2.1161,0,2.1149,2.1182,2.1153,2.1191,2.1201,2.1158,2.1175,2.1167,2.1151,2.1157,2.1139,2.1147,2.1113,2.1111,2.1125,2.1107,2.1138,2.1102,2.1106,2.1107,2.1107,2.12,2.1221,2.1279,2.1168,2.117,2.1171,0,2.1239,2.1237,2.1276,2.1254,2.1258,2.1274,2.1269,2.1277,2.1265,2.1252,2.1249,2.1221,2.1237,2.1199,2.1218,2.1194,2.1194,2.1185,2.1186,2.1183,2.1141,2.1196,2.1298,2.1305,2.1183,2.1182,2.1181,0,2.1319,2.1327,2.135,2.1347,2.1324,2.1335,2.1326,2.1313,2.1313,2.131,2.1309,2.1308,2.1306,2.1305,2.1276,2.1252,2.1297,2.1258,2.1284,2.1285,2.1294,2.1293,2.1393,2.13,2.13,2.13,2.13,0,2.1402,2.1426,2.1385,2.1398,2.1423,2.1389,2.1414,2.1401,2.1388,2.1397,2.1361,2.1369,2.1332,2.1336,2.1314,2.1331,2.1332,2.132,2.1313,2.1321,2.1322,2.1318,2.1312,2.1302,2.1301,2.1301,2.1301,0,2.1494,2.1469,2.149,2.1466,2.146,2.1479,2.1457,2.1467,2.1449,2.146,2.146,2.1431,2.1433,2.1405,2.1403,2.1387,2.1413,2.1401,2.1416,2.1411,2.1438,2.1434,2.1536,2.1546,2.145,2.1451,2.1452,0,2.1547,2.1564,2.1541,2.1544,2.1536,2.1543,2.1542,2.1509,2.151,2.1496,2.1508,2.1507,2.1505,2.151,2.1488,2.1485,2.147,2.1506,2.1469,2.1475,2.1465,2.1463,2.1463,2.1513,2.1514,2.1515,2.1516,0,2.1642,2.1628,2.1629,2.1625,2.1626,2.1621,2.1614,2.1618,2.1582,2.1585,2.1586,2.1584,2.158,2.1579,2.1571,2.156,2.1531,2.1528,2.1533,2.154,2.1546,2.1539,2.1433,2.1525,2.1524,2.1523,2.1523,2.1522,2.1714,2.1725,2.171,2.1711,2.1702,2.1696,2.1703,2.1684,2.1685,2.1679,2.166,2.1664,2.1648,2.1634,2.1626,2.1627,2.1609,2.1618,2.162,2.1621,2.1624,2.1549,2.1626,2.1626,2.1626,2.1625,2.1625,0,2.1804,2.1791,2.1793,2.1783,2.1783,2.1756,2.1746,2.1748,2.1752,2.174,2.1738,2.1738,2.1736,2.1712,2.1707,2.1712,2.1698,2.1711,2.1709,2.1706,2.1643,2.1637,2.1722,2.1722,2.1722,2.1722,2.1722,2.1722,2.185,2.1866,2.185,2.186,2.1847,2.185,2.1846,2.1839,2.1829,2.183,2.1828,2.1813,2.1795,2.1788,2.1783,2.1776,2.1774,2.1791,2.1779,2.172,2.1711,2.1702,2.1696,2.1792,2.1792,2.1842,2.1842,2.1843]},{"header":{"parameterUnit":"m.s-1","parameterCategory":1,"la1":30.2991,"la2":30.254,"lo1":-89.0895,"lo2":-89.0444,"dy":0.0017,"dx":0.0017,"nx":28,"ny":28,"refTime":"2025-07-18T09:00:00:Z","depth":0,"parameterNumber":3,"parameterNumberName":"V-component_of_WINDS"},"data":[0,0,0,0,0,0,0,0,0,0,0,0,0,0,0,0,0,0,0,0,0,0,0,0,0,0,0,0,0,0,0,0,0,0,0,0,0,0,0,0,0,0,0,0,0,0,0,0,0,0,0,0,0,0,0,0,0,0,3.8054,3.8056,0,3.8205,3.8207,3.8209,3.8198,3.8195,3.8193,3.8191,3.8346,3.8352,3.8358,0,0,0,0,0,0,0,0,0,0,0,0,0,3.7754,3.776,3.8054,3.8056,3.8058,3.8205,3.8207,3.8209,3.8198,3.8195,3.8193,3.819,3.8344,3.8351,3.8358,0,0,0,0,0,0,0,0,0,0,0,0,0,3.7893,3.7761,3.8054,3.807,3.8073,3.8205,3.8207,3.821,3.8199,3.8195,3.8192,3.8189,3.8341,3.835,3.8359,3.8485,0,0,3.8388,3.8392,0,0,0,0,0,0,0,0,3.7885,3.7904,3.8066,3.8069,3.8073,3.8179,3.8158,3.8302,3.8199,3.8151,3.8191,3.8187,3.8293,3.8306,3.8342,3.8492,3.8499,3.8389,3.8394,3.8398,3.8401,0,0,0,0,0,0,0,3.7875,3.7897,3.8114,3.8068,3.8072,3.8069,3.8085,3.8185,3.8239,3.8155,3.8154,3.8172,3.8294,3.8333,3.8345,3.8501,3.8388,3.8397,3.8403,3.8406,3.8759,3.8762,0,0,0,0,0,0,3.7862,3.7889,3.8109,3.8118,3.7969,3.8077,3.8095,3.8148,3.8238,3.8248,3.8175,3.8171,3.8319,3.8335,3.8351,3.8502,3.8398,3.8407,3.8412,3.8755,3.876,3.8764,0,0,0,0,0,0,3.7856,3.7882,3.8103,3.8004,3.8032,3.8086,3.8146,3.8153,3.8192,3.8253,3.8263,3.8205,3.8317,3.8338,3.8451,3.8507,3.8411,3.842,3.8751,3.8757,3.8762,3.8806,0,0,0,0,0,0,3.7847,3.788,3.7928,3.8005,3.8037,3.8201,3.8149,3.8159,3.8208,3.8204,3.8284,3.8294,3.8316,3.8437,3.846,3.8518,3.8427,3.8746,3.8753,3.876,3.8799,3.8812,3.8823,0,0,0,0,0,3.7837,3.7935,3.7931,3.7957,3.8099,3.8205,3.8223,3.8246,3.8213,3.8261,3.8301,3.8291,3.8497,3.8449,3.8475,3.8536,3.8742,3.8751,3.8759,3.8794,3.8809,3.8823,0,0,0,0,0,0,3.7864,3.7946,3.7942,3.8068,3.8129,3.8203,3.8265,3.8262,3.8334,3.8328,3.8354,3.8372,3.8485,3.8522,3.8467,3.8661,3.8615,3.8629,3.8633,3.8648,3.8659,3.8648,3.8435,0,0,0,0,0,3.7885,3.7964,3.8031,3.8136,3.8167,3.8211,3.8258,3.827,3.8335,3.836,3.8408,3.8471,3.8549,3.8601,3.8677,3.8805,3.8821,3.886,3.8871,3.8881,3.8892,3.8961,3.8978,3.8792,3.8792,3.8791,0,0,3.7929,3.7983,3.8031,3.8143,3.8192,3.8272,3.8233,3.832,3.838,3.8374,3.8483,3.852,3.8592,3.8712,3.8768,3.8747,3.8947,3.8891,3.8898,3.8905,3.8971,3.8989,3.9004,3.8797,3.8796,3.8795,0,0,3.8049,3.8099,3.8191,3.824,3.8315,3.8343,3.8365,3.8438,3.8463,3.8573,3.8569,3.864,3.8776,3.8827,3.887,3.9008,3.9001,3.9032,3.9093,3.9159,3.9174,3.9187,3.9235,3.9252,3.9043,3.9044,3.9044,0,3.8094,3.8216,3.8239,3.8326,3.8375,3.8372,3.8465,3.8512,3.8607,3.864,3.8615,3.8784,3.8832,3.8963,3.8997,3.9033,3.9058,3.9023,3.917,3.9184,3.9196,3.9242,3.926,3.9047,3.9046,3.9046,3.9046,0,3.8266,3.8351,3.8416,3.8507,3.8563,3.8653,3.8688,3.8742,3.8749,3.878,3.8891,3.8949,3.9035,3.9068,3.9076,3.92,3.9184,3.9165,3.9119,3.9217,3.926,3.9278,3.9051,3.905,3.9049,3.9048,0,0,3.841,3.8511,3.8534,3.8575,3.8656,3.8721,3.881,3.8895,3.8939,3.9005,3.9079,3.9193,3.9175,3.9224,3.9238,3.9297,3.94,3.927,3.9271,3.929,3.9538,3.9551,3.9571,3.9396,3.9399,3.9402,3.9531,0,3.8537,3.8695,3.8717,3.8856,3.8933,3.8931,3.9008,3.9066,3.9096,3.9166,3.9199,3.9279,3.925,3.9279,3.9337,3.9375,3.9449,3.9366,3.9464,3.9468,3.9445,3.9594,3.9609,3.9728,3.9548,3.9551,3.9553,0,3.8707,3.8777,3.8923,3.8991,3.9025,3.9094,3.9172,3.9239,3.9303,3.9321,3.9376,3.9382,3.9473,3.9424,3.9549,3.9491,3.9533,3.9557,3.9562,3.9572,3.9516,3.9606,3.9767,3.9784,3.9581,3.9578,3.9576,0,3.8795,3.8925,3.9029,3.9064,3.9147,3.9195,3.9232,3.9293,3.9342,3.941,3.9442,3.952,3.9562,3.9622,3.9649,3.9611,3.9772,3.9725,3.9788,3.9788,3.9822,3.9819,3.999,3.985,3.985,3.985,3.9849,0,3.8934,3.9024,3.9069,3.9132,3.9232,3.9256,3.9354,3.9389,3.9443,3.9513,3.9517,3.9582,3.9614,3.9684,3.9705,3.9804,3.9824,3.984,3.9845,3.984,3.9837,3.9867,3.9859,3.9854,3.9853,3.9852,3.9852,0,3.9049,3.9083,3.9195,3.9264,3.9284,3.9354,3.9412,3.9474,3.9503,3.9592,3.9614,3.966,3.9743,3.9775,3.9877,3.9891,4.0005,4.0003,3.9983,3.9984,4.0044,4.0038,4.024,4.0267,4.011,4.0111,4.0112,0,3.9135,3.9204,3.9279,3.9326,3.9364,3.944,3.9489,3.9515,3.9567,3.9644,3.9696,3.9778,3.9845,3.9977,4.0019,4.0096,4.0096,4.0161,4.0108,4.01,4.0095,4.0091,4.0097,4.0171,4.0173,4.0174,4.0175,0,3.9284,3.9297,3.9368,3.9445,3.9503,3.9565,3.9625,3.9663,3.9698,3.9755,3.9839,3.9891,3.9993,4.0074,4.0153,4.0191,4.0189,4.0192,4.021,4.0205,4.019,4.0197,4.0008,4.0187,4.0186,4.0185,4.0184,4.0184,3.9387,3.9446,3.9508,3.9587,3.9634,3.969,3.975,3.9787,3.9857,3.9943,3.9954,4.0043,4.0105,4.021,4.0251,4.0321,4.0304,4.0331,4.0338,4.0344,4.0347,4.0179,4.0336,4.0335,4.0335,4.0335,4.0335,0,3.9534,3.9574,3.9646,3.9729,3.979,3.9782,3.9848,3.9899,3.9978,4.0036,4.0101,4.0197,4.0275,4.0323,4.0402,4.0449,4.0449,4.0468,4.0465,4.0473,4.0359,4.0334,4.0466,4.0466,4.0466,4.0466,4.0466,4.0466,3.9619,3.9719,3.9739,3.9862,3.9901,3.9989,4.0027,4.0077,4.0123,4.023,4.0294,4.0325,4.0379,4.0461,4.0532,4.0544,4.0572,4.0592,4.0603,4.0495,4.0481,4.0468,4.0445,4.0598,4.0598,4.0711,4.0712,4.0713]}]]